Liberal, KS

5:23 AM CDT on May 20, 2018 (GMT -0500)
Liberal Municipal

Weather History for KLBL - November, 2012

Change the Weather History Date:

Monday, November 5, 2012

  Actual Average Record
Temperature  
Mean Temperature 52 °F -  
Max Temperature 64 °F 62 °F 86 °F (1945)
Min Temperature 39 °F 34 °F 10 °F (1991)
Degree Days  
Heating Degree Days 14    
Growing Degree Days 2 (Base 50)    
Moisture  
Dew Point 32 °F    
Average Humidity 48    
Maximum Humidity 62    
Minimum Humidity 32    
Precipitation  
Precipitation 0.00 in - - ()
Sea Level Pressure  
Sea Level Pressure 30.18 in    
Wind  
Wind Speed 10 mph (NNW)    
Max Wind Speed 17 mph    
Max Gust Speed 26 mph    
Visibility 10 miles    
Events      
Averages and records for this station are not official NWS values.
T = Trace of Precipitation, MM = Missing Value Source: NWS Daily Summary

Daily Weather History Graph

Daily Weather History Graph

Search for Another Location

Airport or City:

Astronomy

Nov. 05, 2012 Rise Set
Actual Time 7:12 AM CST 5:41 PM CST
Civil Twilight 6:45 AM CST 6:08 PM CST
Nautical Twilight 6:14 AM CST 6:39 PM CST
Astronomical Twilight 5:44 AM CST 7:10 PM CST
Moon 11:20 PM CST (11/5) 12:32 PM CST (11/5)
Length of Visible Light 11h 23m
Length of Day
10h 29m
Waning Gibbous, 62% of the Moon is Illuminated
Nov 5
Waning Gibbous
Nov 6
Last Quarter
Nov 13
New
Nov 20
First Quarter
Nov 28
Full

Hourly Weather History & Observations

Time (CST) Temp. Windchill Dew Point Humidity Pressure Visibility Wind Dir Wind Speed Gust Speed Precip Events Conditions
12:15 AM 51.8 °F - 28.4 °F 41% 30.19 in 10.0 mi NNW 10.4 mph - N/A   Clear
12:35 AM 51.8 °F - 28.4 °F 41% 30.20 in 10.0 mi NNW 10.4 mph - N/A   Partly Cloudy
12:55 AM 51.8 °F - 28.4 °F 41% 30.20 in 10.0 mi North 6.9 mph - N/A   Mostly Cloudy
1:15 AM 51.8 °F - 28.4 °F 41% 30.20 in 10.0 mi NNW 5.8 mph - N/A   Mostly Cloudy
1:35 AM 50.0 °F - 28.4 °F 43% 30.20 in 10.0 mi NNW 8.1 mph - N/A   Scattered Clouds
1:55 AM 50.0 °F - 28.4 °F 43% 30.20 in 10.0 mi NNW 6.9 mph - N/A   Partly Cloudy
2:15 AM 50.0 °F - 28.4 °F 43% 30.21 in 10.0 mi NNW 8.1 mph - N/A   Clear
2:35 AM 50.0 °F - 28.4 °F 43% 30.21 in 10.0 mi NNW 9.2 mph - N/A   Clear
2:55 AM 48.2 °F - 28.4 °F 46% 30.22 in 10.0 mi NNW 8.1 mph - N/A   Clear
3:15 AM 46.4 °F 41.9 °F 26.6 °F 46% 30.22 in 10.0 mi NNW 9.2 mph - N/A   Clear
3:35 AM 48.2 °F - 28.4 °F 46% 30.21 in 10.0 mi NNW 10.4 mph - N/A   Clear
3:55 AM 46.4 °F 41.9 °F 28.4 °F 50% 30.21 in 10.0 mi NNW 9.2 mph - N/A   Clear
4:15 AM 42.8 °F 37.5 °F 26.6 °F 53% 30.21 in 10.0 mi NW 9.2 mph - N/A   Clear
4:35 AM 39.2 °F 33.0 °F 26.6 °F 61% 30.22 in 10.0 mi WNW 9.2 mph - N/A   Clear
4:55 AM 41.0 °F 35.8 °F 28.4 °F 61% 30.22 in 10.0 mi NW 8.1 mph - N/A   Clear
5:15 AM 41.0 °F 35.2 °F 28.4 °F 61% 30.22 in 10.0 mi WNW 9.2 mph - N/A   Clear
5:35 AM 41.0 °F 35.2 °F 28.4 °F 61% 30.23 in 10.0 mi WNW 9.2 mph - N/A   Clear
5:55 AM 42.8 °F 36.2 °F 28.4 °F 57% 30.23 in 10.0 mi NW 12.7 mph - N/A   Clear
6:15 AM 42.8 °F 37.0 °F 30.2 °F 61% 30.23 in 10.0 mi NW 10.4 mph - N/A   Partly Cloudy
6:35 AM 42.8 °F 37.5 °F 30.2 °F 61% 30.23 in 10.0 mi NW 9.2 mph - N/A   Mostly Cloudy
6:55 AM 42.8 °F 37.0 °F 30.2 °F 61% 30.23 in 10.0 mi NW 10.4 mph - N/A   Overcast
7:15 AM 44.6 °F 38.8 °F 30.2 °F 57% 30.23 in 10.0 mi NW 11.5 mph - N/A   Overcast
7:35 AM 44.6 °F 39.2 °F 32.0 °F 61% 30.24 in 10.0 mi NW 10.4 mph - N/A   Overcast
7:55 AM 46.4 °F 41.5 °F 33.8 °F 62% 30.25 in 10.0 mi NNW 10.4 mph - N/A   Overcast
8:15 AM 48.2 °F - 33.8 °F 58% 30.25 in 10.0 mi NW 9.2 mph - N/A   Overcast
8:35 AM 48.2 °F - 35.6 °F 62% 30.26 in 10.0 mi NW 10.4 mph - N/A   Overcast
8:55 AM 51.8 °F - 35.6 °F 54% 30.26 in 10.0 mi NW 11.5 mph - N/A   Overcast
9:15 AM 51.8 °F - 35.6 °F 54% 30.26 in 10.0 mi NNW 13.8 mph - N/A   Overcast
9:35 AM 53.6 °F - 35.6 °F 51% 30.25 in 10.0 mi NNW 12.7 mph - N/A   Overcast
9:55 AM 53.6 °F - 35.6 °F 51% 30.26 in 10.0 mi NNW 11.5 mph - N/A   Scattered Clouds
10:15 AM 55.4 °F - 37.4 °F 51% 30.25 in 10.0 mi NNW 15.0 mph 18.4 mph N/A   Partly Cloudy
10:35 AM 57.2 °F - 35.6 °F 44% 30.25 in 10.0 mi North 15.0 mph - N/A   Clear
10:55 AM 57.2 °F - 35.6 °F 44% 30.25 in 10.0 mi NW 12.7 mph - N/A   Clear
11:15 AM 59.0 °F - 35.6 °F 42% 30.24 in 10.0 mi NNW 16.1 mph 23.0 mph N/A   Clear
11:35 AM 60.8 °F - 35.6 °F 39% 30.23 in 10.0 mi NNW 13.8 mph - N/A   Clear
11:55 AM 60.8 °F - 33.8 °F 36% 30.22 in 10.0 mi NNW 12.7 mph - N/A   Clear
12:15 PM 60.8 °F - 33.8 °F 36% 30.21 in 10.0 mi NW 12.7 mph 19.6 mph N/A   Clear
12:35 PM 62.6 °F - 35.6 °F 37% 30.20 in 10.0 mi NNW 15.0 mph 20.7 mph N/A   Clear
12:55 PM 62.6 °F - 33.8 °F 34% 30.19 in 10.0 mi NNW 15.0 mph 21.9 mph N/A   Clear
1:15 PM 62.6 °F - 33.8 °F 34% 30.18 in 10.0 mi North 16.1 mph 21.9 mph N/A   Clear
1:35 PM 62.6 °F - 35.6 °F 37% 30.18 in 10.0 mi NW 13.8 mph 23.0 mph N/A   Clear
1:55 PM 62.6 °F - 33.8 °F 34% 30.17 in 10.0 mi NNW 17.3 mph 26.5 mph N/A   Clear
2:15 PM 62.6 °F - 33.8 °F 34% 30.16 in 10.0 mi NNW 13.8 mph 20.7 mph N/A   Clear
2:35 PM 62.6 °F - 35.6 °F 37% 30.16 in 10.0 mi North 12.7 mph - N/A   Clear
2:55 PM 62.6 °F - 33.8 °F 34% 30.15 in 10.0 mi NW 10.4 mph 18.4 mph N/A   Clear
3:15 PM 64.4 °F - 33.8 °F 32% 30.15 in 10.0 mi NNW 9.2 mph 20.7 mph N/A   Clear
3:35 PM 64.4 °F - 33.8 °F 32% 30.14 in 10.0 mi NW 13.8 mph - N/A   Clear
3:55 PM 64.4 °F - 33.8 °F 32% 30.13 in 10.0 mi NW 10.4 mph - N/A   Clear
4:15 PM 62.6 °F - 33.8 °F 34% 30.12 in 10.0 mi NE 10.4 mph - N/A   Clear
4:35 PM 62.6 °F - 33.8 °F 34% 30.12 in 10.0 mi ENE 11.5 mph - N/A   Clear
4:55 PM 60.8 °F - 35.6 °F 39% 30.13 in 10.0 mi ENE 9.2 mph - N/A   Clear
5:15 PM 60.8 °F - 33.8 °F 36% 30.13 in 10.0 mi East 9.2 mph - N/A   Clear
5:35 PM 57.2 °F - 33.8 °F 41% 30.12 in 10.0 mi ENE 9.2 mph - N/A   Clear
5:55 PM 55.4 °F - 33.8 °F 44% 30.13 in 10.0 mi East 6.9 mph - N/A   Clear
6:15 PM 53.6 °F - 33.8 °F 47% 30.13 in 10.0 mi East 5.8 mph - N/A   Clear
6:35 PM 53.6 °F - 33.8 °F 47% 30.13 in 10.0 mi ESE 5.8 mph - N/A   Clear
6:55 PM 51.8 °F - 32.0 °F 47% 30.12 in 10.0 mi SE 5.8 mph - N/A   Clear
7:15 PM 50.0 °F - 30.2 °F 47% 30.13 in 10.0 mi ESE 6.9 mph - N/A   Clear
7:35 PM 48.2 °F - 30.2 °F 50% 30.13 in 10.0 mi SE 4.6 mph - N/A   Clear
7:55 PM 48.2 °F - 32.0 °F 54% 30.13 in 10.0 mi SE 5.8 mph - N/A   Clear
8:15 PM 48.2 °F - 32.0 °F 54% 30.13 in 10.0 mi SSE 6.9 mph - N/A   Clear
8:35 PM 46.4 °F 43.5 °F 30.2 °F 53% 30.13 in 10.0 mi SSE 5.8 mph - N/A   Clear
8:55 PM 46.4 °F 43.5 °F 30.2 °F 53% 30.14 in 10.0 mi South 5.8 mph - N/A   Clear
9:15 PM 44.6 °F 40.7 °F 30.2 °F 57% 30.14 in 10.0 mi South 6.9 mph - N/A   Clear
9:35 PM 44.6 °F 40.2 °F 30.2 °F 57% 30.13 in 10.0 mi South 8.1 mph - N/A   Clear
9:55 PM 44.6 °F 39.7 °F 30.2 °F 57% 30.12 in 10.0 mi South 9.2 mph - N/A   Clear
10:15 PM 44.6 °F 40.2 °F 30.2 °F 57% 30.12 in 10.0 mi SSW 8.1 mph - N/A   Clear
10:35 PM 44.6 °F 40.7 °F 30.2 °F 57% 30.12 in 10.0 mi SSW 6.9 mph - N/A   Clear
10:55 PM 42.8 °F 38.0 °F 30.2 °F 61% 30.12 in 10.0 mi SSW 8.1 mph - N/A   Clear
11:15 PM 41.0 °F 35.2 °F 28.4 °F 61% 30.13 in 10.0 mi SW 9.2 mph - N/A   Clear
11:35 PM 41.0 °F 35.2 °F 28.4 °F 61% 30.12 in 10.0 mi SW 9.2 mph - N/A   Clear
11:55 PM 42.8 °F 38.6 °F 30.2 °F 61% 30.12 in 10.0 mi SW 6.9 mph - N/A   Clear